Regional Weather Roundup
Issued by NWS

Home | Current Version | Previous Version | Graphics & Text | Print | Product List | Glossary On
Versions: 1 2 3 4 5 6 7 8 9 10 11 12 13 14 15 16 17 18 19 20 21 22 23 24 25 26 27 28 29 30 31 32 33 34 35 36 37 38 39 40 41 42 43 44 45 46 47 48 49 50
906
ASUS45 KBOU 201407
RWRCO

WEATHER ROUNDUP FOR COLORADO
NATIONAL WEATHER SERVICE DENVER/BOULDER CO
800 AM MDT WED SEP 20 2017

NOTE: "FAIR" INDICATES FEW OR NO CLOUDS BELOW 12000 FEET WITH NO
SIGNIFICANT WEATHER AND/OR OBSTRUCTIONS TO VISIBILITY.

COZ001>005-013-030-031-201500-
...NORTHWEST COLORADO...

CITY           SKY/WX    TMP DP  RH WIND       PRES   REMARKS
CRAIG          CLOUDY    42  36  79 CALM      30.04S
HAYDEN         CLOUDY    38  35  89 E10       30.06S
MEEKER         CLOUDY    40  38  93 CALM      30.03S
RABBIT EARS PA PTSUNNY   34  32  93 SW8       30.15R WCI  27
STEAMBOAT SPGS CLOUDY    35  34  98 CALM      30.06F
WALDEN         PTSUNNY   34  32  93 CALM      30.08S
$$

COZ006>008-011-201500-
...WEST CENTRAL VALLEYS...

CITY           SKY/WX    TMP DP  RH WIND       PRES   REMARKS
GRAND JUNCTION FAIR      52  38  58 E3        29.95R
MONTROSE       FAIR      50  37  61 SE3       30.03R
EAGLE          FAIR      44  32  62 S3        30.08R
RIFLE          FAIR      45  37  73 NE5       30.01S
DELTA          FAIR      55  34  45 E3        30.00R
NUCLA          FAIR      59  28  31 SE3       30.06R
$$

COZ017>023-064>068-201500-
...SOUTHWEST COLORADO...

CITY           SKY/WX    TMP DP  RH WIND       PRES   REMARKS
DURANGO        FAIR      43  29  57 CALM      30.12R
CORTEZ         FAIR      44  31  60 CALM      30.07R
PAGOSA SPRINGS FAIR      44  26  49 CALM      30.18R
TELLURIDE      FAIR      47  30  50 SE3       30.22R
WOLF CREEK PAS FAIR      32  19  59 SW14G21   30.37R WCI  22
$$

COZ009-010-012-014-032>034-037-058>063-201500-
...CENTRAL COLORADO...

CITY           SKY/WX    TMP DP  RH WIND       PRES   REMARKS
ASPEN          FAIR      44  33  65 SE7       30.07S
BUENA VISTA    FAIR      54  26  33 E8        30.09R
COPPER MTN     FAIR      41  27  56 SW12G29   30.26R
BERTHOUD PASS  FAIR      32  25  74 W37G56    30.23S WCI  16
COTTONWOOD PAS FAIR      52  23  32 W9G22     30.18R
GUNNISON       FAIR      42  26  53 NW5       30.14R
KREMMLING      PTSUNNY   43  34  70 CALM      30.09S
LEADVILLE      FAIR      45  23  42 VRB3      30.16R
MONARCH PASS   FAIR      36  27  69 W36G45    30.38R
SALIDA         FAIR      53  27  36 E10       30.15R
SUNLIGHT       FAIR      37  27  65 SW15G24   30.22S
WILKERSON PASS FAIR      41  23  48 S9G18     30.26R
$$

COZ069>075-201500-
...SAN LUIS VALLEY/SANGRE DE CRISTO MOUNTAINS...

CITY           SKY/WX    TMP DP  RH WIND       PRES   REMARKS
ALAMOSA        FAIR      48  26  42 S12       30.13R
DEL NORTE      FAIR      48  23  37 SW3       30.15S
LA VETA PASS   FAIR      45  19  36 S12G25    30.35R
SAGUACHE       FAIR      37  27  65 NW5       30.16R
$$

COZ035-036-038>040-201500-
...NORTHERN COLORADO FRONT RANGE...

CITY           SKY/WX    TMP DP  RH WIND       PRES   REMARKS
DENVER INTL AP FAIR      51  29  42 SE23G29   29.99S
DMNS CITY PARK   N/A     50  33  51 SE14      29.99S
AURORA         MOSUNNY   47  31  55 SE18      30.00S
FRONT RANGE AP MOSUNNY   50  32  50 SE16      30.03R
ERIE MUNI ARPT FAIR      48  35  60 CALM      30.05S
BOULDER MUN AP FAIR      48  32  53 CALM      30.00R
CENTENNIAL     FAIR      46  33  60 SE7       30.00R
BROOMFIELD     MOSUNNY   48  32  53 S6        30.01R
FORT COLLINS   FAIR      49  34  56 S5        30.01R
LONGMONT       FAIR      48  38  67 CALM      30.02S
$$

COZ041-046-047-076>085-087-088-201500-
...PIKES PEAK/PALMER DIVIDE AND SOUTHERN FOOTHILLS...

CITY           SKY/WX    TMP DP  RH WIND       PRES   REMARKS
COLO. SPRINGS  FAIR      47  31  53 S18       30.09R
A. F. ACADEMY  FAIR      43  29  57 S5        30.07R
SCHRIEVER AFB  FAIR      43  30  60 MISG      30.10R
CHEYENNE MTN   NOT AVBL
ELLICOTT         N/A    N/A N/A N/A S9        30.09R
FALCON         FAIR      43  29  57 S18G24    30.10R
FORT CARSON    FAIR      48  31  50 S15       30.07R
LIMON          FAIR      42  31  64 CALM      30.06R
MONUMENT HILL  FAIR      45  30  57 S22G29    30.05R
CANON CITY     SUNNY     48  34  57 W3        30.08R
WALSENBURG     FAIR      50  36  57 CALM      30.10R
TRINIDAD       FAIR      46  37  71 CALM      30.09R
$$

COZ042>045-048>051-090-091-201500-
...NORTHEAST COLORADO...

CITY           SKY/WX    TMP DP  RH WIND       PRES   REMARKS
GREELEY ARPT   FAIR      48  35  60 SW6       30.01R
AKRON          FAIR      51  27  39 S5        30.01R
BURLINGTON     FAIR      52  33  48 N3        30.00R
WRAY           FAIR      45  32  61 W7        29.99S
YUMA           FAIR      46  32  57 CALM      29.99S
STERLING       FAIR      45  36  70 SW6       29.98R
HOLYOKE        NOT AVBL
FORT MORGAN    FAIR      47  32  56 CALM      30.01R
$$

COZ086-089-092>099-201500-
...SOUTHEAST COLORADO...

CITY           SKY/WX    TMP DP  RH WIND       PRES   REMARKS
PUEBLO         FAIR      48  30  49 CALM      30.07R
LA JUNTA       FAIR      49  33  54 W8        30.05R
LAMAR          FAIR      47  33  58 W7        30.01R
SPRINGFIELD    NOT AVBL
$$




USA.gov is the U.S. government's official web portal to all federal, state and local government web resources and services.